CW2931 Weather Reports


Display with metric or nautical units.
time (UTC)temp
F
wind
direction
speed
MPH
gust
MPH
rain 1hr
in
rain 24hr
in
rain mn
in
humidity
%
barometer
mb
20260510201604 64 279 5.0 12.0 0.00 0.00 0.00 27 1017.2
20260510201104 65 290 5.0 13.0 0.00 0.00 0.00 27 1017.2
20260510200605 65 274 5.0 13.0 0.00 0.00 0.00 27 1017.2
20260510195604 65 280 3.0 7.0 0.00 0.00 0.00 30 1017.2
20260510195103 64 0 2.0 6.0 0.00 0.00 0.00 28 1017.2
20260510194104 64 341 3.0 6.0 0.00 0.00 0.00 29 1017.3
20260510193604 65 262 5.0 12.0 0.00 0.00 0.00 29 1017.3
20260510192104 64 263 3.0 9.0 0.00 0.00 0.00 29 1017.5
20260510191605 64 357 3.0 6.0 0.00 0.00 0.00 29 1017.4
20260510191104 65 291 3.0 7.0 0.00 0.01 0.00 31 1017.3
20260510190104 64 325 5.0 12.0 0.00 0.04 0.00 29 1017.6
20260510185604 64 312 3.0 6.0 0.00 0.06 0.00 31 1017.3
20260510185104 64 337 3.0 12.0 0.00 0.06 0.00 30 1017.4
20260510184604 64 312 3.0 12.0 0.00 0.06 0.00 31 1017.3
20260510184104 64 253 1.0 7.0 0.00 0.06 0.00 29 1017.3
20260510183604 64 263 5.0 9.0 0.00 0.06 0.00 29 1017.2
20260510182605 63 301 3.0 6.0 0.00 0.06 0.00 31 1017.2
20260510182104 63 306 3.0 7.0 0.00 0.06 0.00 31 1017.2
20260510181604 63 284 3.0 10.0 0.00 0.06 0.00 32 1017.1
20260510181104 63 3 4.0 7.0 0.00 0.06 0.00 29 1017.1
20260510180605 63 347 2.0 3.0 0.00 0.06 0.00 29 1017.1
20260510180104 63 293 3.0 6.0 0.00 0.06 0.00 30 1017.1
20260510175604 63 282 5.0 14.0 0.00 0.06 0.00 30 1017.2
20260510175104 63 2 3.0 7.0 0.00 0.06 0.00 30 1016.9
20260510174604 62 348 3.0 7.0 0.00 0.06 0.00 30 1017.1
20260510174104 62 27 2.0 6.0 0.00 0.06 0.00 29 1017.1
20260510172604 62 318 3.0 7.0 0.00 0.06 0.00 30 1017.1
20260510172104 62 312 3.0 7.0 0.00 0.06 0.00 30 1017.1
20260510171604 62 11 3.0 7.0 0.00 0.06 0.00 29 1017.1
20260510171104 62 289 2.0 7.0 0.00 0.06 0.00 28 1017.1
20260510170604 62 276 3.0 7.0 0.00 0.06 0.00 31 1017.2
20260510170104 62 277 3.0 7.0 0.00 0.06 0.00 30 1017.2
20260510165604 62 299 2.0 12.0 0.00 0.06 0.00 29 1017.2
20260510165104 62 272 2.0 14.0 0.00 0.06 0.00 31 1017.2
20260510164604 62 256 2.0 12.0 0.00 0.06 0.00 32 1017.2
20260510164103 61 310 3.0 7.0 0.00 0.06 0.00 33 1017.2
20260510163604 61 323 3.0 6.0 0.00 0.06 0.00 32 1017.2
20260510162604 61 259 5.0 12.0 0.00 0.06 0.00 32 1017.2
20260510162104 61 329 3.0 9.0 0.00 0.06 0.00 32 1017.2
20260510161604 61 20 4.0 6.0 0.00 0.06 0.00 32 1017.2
20260510161104 61 356 3.0 12.0 0.00 0.06 0.00 33 1017.2
20260510160604 61 0 2.0 6.0 0.00 0.06 0.00 33 1017.1
20260510160104 61 5 2.0 9.0 0.00 0.06 0.00 34 1017.0
20260510155604 61 325 3.0 5.0 0.00 0.06 0.00 34 1017.1
20260510155104 61 334 2.0 5.0 0.00 0.06 0.00 35 1016.9
20260510154604 61 7 2.0 5.0 0.00 0.06 0.00 34 1016.8
20260510154104 61 343 1.0 5.0 0.00 0.06 0.00 38 1016.7
20260510153604 60 244 2.0 5.0 0.00 0.06 0.00 36 1016.7
20260510153103 60 335 1.0 6.0 0.00 0.06 0.00 37 1016.7
20260510152604 60 338 4.0 7.0 0.00 0.06 0.00 36 1016.7
20260510151604 59 344 2.0 7.0 0.00 0.06 0.00 37 1016.6
20260510151104 59 30 4.0 9.0 0.00 0.06 0.00 35 1016.6
20260510150603 59 3 2.0 7.0 0.00 0.06 0.00 37 1016.6
20260510145604 58 347 3.0 6.0 0.00 0.06 0.00 36 1016.6
20260510145103 58 268 3.0 6.0 0.00 0.06 0.00 39 1016.5
20260510144604 58 257 3.0 7.0 0.00 0.06 0.00 37 1016.4
20260510144104 58 18 2.0 9.0 0.00 0.06 0.00 39 1016.4
20260510143104 58 264 2.0 6.0 0.00 0.06 0.00 38 1016.4
20260510142604 58 6 3.0 5.0 0.00 0.06 0.00 38 1016.3
20260510142104 57 342 2.0 3.0 0.00 0.06 0.00 39 1016.2
20260510141604 57 269 1.0 3.0 0.00 0.06 0.00 42 1016.2
20260510141104 57 280 1.0 3.0 0.00 0.06 0.00 42 1016.2
20260510140104 56 252 2.0 3.0 0.00 0.06 0.00 42 1016.1
20260510135104 56 310 1.0 3.0 0.00 0.06 0.00 45 1016.1
20260510134604 56 295 2.0 3.0 0.00 0.06 0.00 45 1016.1
20260510134104 55 240 3.0 6.0 0.00 0.06 0.00 44 1016.1
20260510133604 55 318 1.0 3.0 0.00 0.06 0.00 46 1016.1
20260510133104 55 276 1.0 3.0 0.00 0.06 0.00 46 1016.2
20260510132604 55 269 2.0 3.0 0.00 0.06 0.00 45 1016.1
20260510132104 55 13 1.0 3.0 0.00 0.06 0.00 46 1016.1
20260510131604 54 15 1.0 3.0 0.00 0.06 0.00 48 1016.1
20260510131104 54 15 1.0 2.0 0.00 0.06 0.00 50 1016.0
20260510130606 53 16 1.0 3.0 0.00 0.06 0.00 50 1016.0
20260510130104 53 11 1.0 3.0 0.00 0.06 0.00 52 1015.9
20260510125604 52 308 1.0 3.0 0.00 0.06 0.00 54 1015.7
20260510125104 52 307 1.0 3.0 0.00 0.06 0.00 56 1015.7
20260510124603 52 307 2.0 3.0 0.00 0.06 0.00 58 1015.6
20260510124104 51 284 1.0 2.0 0.00 0.06 0.00 60 1015.6
20260510123603 50 284 1.0 3.0 0.00 0.06 0.00 62 1015.5
20260510123104 50 280 2.0 3.0 0.00 0.06 0.00 65 1015.5
20260510122604 49 338 0.0 3.0 0.00 0.06 0.00 68 1015.5
20260510122103 48 22 0.0 2.0 0.00 0.06 0.00 71 1015.4
20260510121603 47 22 1.0 2.0 0.00 0.06 0.00 72 1015.4
20260510121104 47 22 1.0 3.0 0.00 0.06 0.00 74 1015.4
20260510120603 46 24 1.0 3.0 0.00 0.06 0.00 75 1015.4
20260510120104 45 17 2.0 3.0 0.00 0.06 0.00 77 1015.4
20260510115603 44 350 1.0 3.0 0.00 0.06 0.00 78 1015.4
20260510114604 44 350 1.0 2.0 0.00 0.06 0.00 77 1015.0
20260510114104 43 11 0.0 1.0 0.00 0.06 0.00 76 1015.0
20260510113604 43 11 1.0 2.0 0.00 0.06 0.00 75 1015.0
20260510112604 43 11 0.0 0.0 0.00 0.06 0.00 73 1014.7
20260510112103 43 11 0.0 0.0 0.00 0.06 0.00 72 1014.5
20260510111604 43 11 0.0 0.0 0.00 0.06 0.00 72 1014.5
20260510111104 43 11 0.0 0.0 0.00 0.06 0.00 71 1014.4
20260510110603 43 11 0.0 0.0 0.00 0.06 0.00 71 1014.4
20260510110104 43 11 0.0 0.0 0.00 0.06 0.00 71 1014.3
20260510105603 43 11 0.0 0.0 0.00 0.06 0.00 71 1014.2
20260510105104 43 11 0.0 0.0 0.00 0.06 0.00 70 1014.1
20260510104103 43 11 0.0 0.0 0.00 0.06 0.00 70 1013.9
20260510103603 44 11 0.0 0.0 0.00 0.06 0.00 69 1013.9
20260510103104 44 11 0.0 0.0 0.00 0.06 0.00 69 1013.9
20260510102604 44 11 0.0 0.0 0.00 0.06 0.00 69 1013.7
20260510102104 44 11 0.0 0.0 0.00 0.06 0.00 69 1013.6
20260510101104 45 11 0.0 0.0 0.00 0.06 0.00 69 1013.6
20260510100604 45 11 0.0 0.0 0.00 0.06 0.00 68 1013.5
20260510095104 45 11 0.0 0.0 0.00 0.06 0.00 67 1013.5
20260510094604 46 11 0.0 0.0 0.00 0.06 0.00 67 1013.5
20260510094103 46 11 0.0 0.0 0.00 0.06 0.00 67 1013.4
20260510093603 46 11 0.0 0.0 0.00 0.06 0.00 67 1013.4
20260510093104 46 11 0.0 1.0 0.00 0.06 0.00 67 1013.4
20260510092604 46 11 0.0 1.0 0.00 0.06 0.00 66 1013.3
20260510092104 47 11 0.0 0.0 0.00 0.06 0.00 66 1013.3
20260510091604 47 11 0.0 0.0 0.00 0.06 0.00 65 1013.2
20260510091104 47 11 0.0 0.0 0.00 0.06 0.00 65 1013.1
20260510085605 48 11 0.0 0.0 0.00 0.06 0.00 65 1012.8
20260510085104 48 11 0.0 0.0 0.00 0.06 0.00 65 1012.7
20260510084103 48 11 0.0 0.0 0.00 0.06 0.00 65 1012.3
20260510083604 48 11 0.0 0.0 0.00 0.06 0.00 65 1012.3
20260510083103 49 11 0.0 0.0 0.00 0.06 0.00 65 1012.1
20260510082603 49 11 0.0 0.0 0.00 0.06 0.00 64 1011.9
20260510082104 49 11 0.0 2.0 0.00 0.06 0.00 64 1011.8
20260510081604 49 11 0.0 2.0 0.00 0.06 0.00 64 1011.7
20260510081104 49 11 1.0 2.0 0.00 0.06 0.00 64 1011.5
20260510080604 49 11 1.0 2.0 0.00 0.06 0.00 64 1011.3
20260510080104 49 12 1.0 2.0 0.00 0.06 0.00 64 1011.2
20260510075603 50 12 1.0 2.0 0.00 0.06 0.00 64 1011.1
20260510075104 50 12 0.0 1.0 0.00 0.06 0.00 64 1010.9
20260510074603 50 12 1.0 1.0 0.00 0.06 0.00 64 1010.7
20260510074104 50 12 0.0 1.0 0.00 0.06 0.00 64 1010.6
20260510073604 50 12 1.0 2.0 0.00 0.06 0.00 64 1010.4
20260510072604 50 11 1.0 3.0 0.00 0.06 0.00 64 1010.1
20260510072103 50 21 1.0 3.0 0.00 0.06 0.00 65 1010.1
20260510071604 50 21 1.0 3.0 0.00 0.06 0.00 65 1010.0
20260510071103 51 22 1.0 2.0 0.00 0.06 0.00 65 1010.0
20260510070603 51 22 0.0 1.0 0.00 0.06 0.00 65 1010.0
20260510070104 51 22 0.0 1.0 0.00 0.06 0.00 65 1009.9
20260510065604 51 22 0.0 1.0 0.00 0.06 0.00 65 1009.7
20260510065103 51 22 0.0 1.0 0.00 0.06 0.00 65 1009.7
20260510064604 51 22 1.0 2.0 0.00 0.06 0.00 64 1009.7
20260510064103 52 22 1.0 3.0 0.00 0.06 0.00 64 1009.6
20260510063603 52 22 1.0 2.0 0.00 0.06 0.00 63 1009.6
20260510063104 52 22 0.0 0.0 0.00 0.06 0.00 62 1009.6
20260510062604 52 22 0.0 1.0 0.00 0.06 0.00 62 1009.7
20260510062104 52 22 1.0 1.0 0.00 0.06 0.00 61 1009.7
20260510061604 53 22 0.0 1.0 0.00 0.06 0.00 61 1009.6
20260510060604 53 22 1.0 1.0 0.00 0.06 0.00 60 1009.6
20260510055605 54 22 0.0 0.0 0.00 0.06 0.00 60 1009.4
20260510055106 54 22 0.0 0.0 0.00 0.06 0.00 60 1009.4
20260510054105 54 22 0.0 0.0 0.00 0.06 0.00 59 1009.3
20260510053105 55 22 1.0 2.0 0.00 0.06 0.00 59 1009.1
20260510052605 55 22 1.0 2.0 0.00 0.06 0.00 58 1009.1
20260510052106 55 22 1.0 3.0 0.00 0.06 0.00 57 1009.0
20260510051606 56 11 0.0 1.0 0.00 0.06 0.00 56 1009.0
20260510051105 56 11 0.0 2.0 0.00 0.06 0.00 55 1008.7
20260510050106 57 11 0.0 0.0 0.00 0.06 0.00 53 1008.5
20260510045605 57 11 0.0 0.0 0.00 0.06 0.00 53 1008.5
20260510044606 58 11 0.0 0.0 0.00 0.06 0.00 52 1008.2
20260510044105 58 11 0.0 0.0 0.00 0.06 0.00 51 1008.1
20260510043605 58 11 0.0 0.0 0.00 0.06 0.00 51 1008.0
20260510042605 59 20 1.0 3.0 0.00 0.06 0.00 49 1007.9
20260510042105 59 20 0.0 3.0 0.00 0.06 0.00 49 1007.9
20260510041605 60 20 1.0 2.0 0.00 0.06 0.00 49 1007.9
20260510041106 60 20 1.0 2.0 0.00 0.06 0.00 48 1007.8
20260510040605 60 20 2.0 3.0 0.00 0.06 0.00 48 1007.8
20260510040106 60 319 1.0 3.0 0.00 0.06 0.00 47 1007.8
20260510034605 61 8 2.0 5.0 0.00 0.06 0.06 46 1007.5
20260510034106 61 348 1.0 3.0 0.00 0.06 0.06 46 1007.4
20260510033606 61 0 1.0 3.0 0.00 0.06 0.06 45 1007.4
20260510033105 61 345 2.0 3.0 0.00 0.06 0.06 45 1007.3
20260510032605 61 16 3.0 5.0 0.00 0.06 0.06 44 1007.2
20260510032105 62 344 3.0 8.0 0.00 0.06 0.06 44 1007.1
20260510031605 62 358 4.0 9.0 0.00 0.06 0.06 44 1007.0
20260510031105 62 323 3.0 7.0 0.00 0.06 0.06 44 1006.9
20260510030605 62 316 4.0 7.0 0.00 0.06 0.06 44 1006.8
20260510025605 62 331 3.0 6.0 0.00 0.06 0.06 47 1006.4
20260510025106 62 345 2.0 8.0 0.00 0.06 0.06 48 1006.3
20260510024106 62 344 3.0 7.0 0.00 0.06 0.06 49 1006.0
20260510023605 62 351 3.0 9.0 0.00 0.06 0.06 51 1005.9
20260510023106 62 305 2.0 5.0 0.00 0.06 0.06 51 1005.8
20260510022605 62 345 2.0 5.0 0.00 0.06 0.06 51 1005.6
20260510021605 61 345 3.0 5.0 0.00 0.06 0.06 52 1005.3
20260510021106 62 338 2.0 9.0 0.00 0.06 0.06 53 1005.2
20260510020605 62 11 1.0 2.0 0.00 0.06 0.06 52 1005.2
20260510020106 62 11 0.0 0.0 0.00 0.06 0.06 50 1004.8
20260510015606 63 11 0.0 0.0 0.00 0.06 0.06 49 1004.7
20260510015105 63 11 0.0 0.0 0.00 0.06 0.06 48 1004.6
20260510014605 63 11 0.0 0.0 0.00 0.06 0.06 47 1004.3
20260510014106 64 11 0.0 1.0 0.00 0.06 0.06 46 1004.2
20260510013606 64 11 0.0 1.0 0.00 0.06 0.06 45 1004.1
20260510013105 65 11 0.0 0.0 0.00 0.06 0.06 44 1003.8
20260510012605 65 11 0.0 0.0 0.00 0.06 0.06 44 1003.7
20260510012105 65 11 0.0 0.0 0.00 0.06 0.06 43 1003.7
20260510011605 66 11 0.0 0.0 0.00 0.06 0.06 43 1003.6
20260510011105 66 11 0.0 0.0 0.00 0.06 0.06 42 1003.5
20260510010605 67 11 0.0 2.0 0.00 0.06 0.06 42 1003.4
20260510010106 67 11 1.0 2.0 0.00 0.06 0.06 41 1003.3
20260510005605 67 11 0.0 2.0 0.00 0.06 0.06 40 1003.2
20260510005106 67 11 0.0 2.0 0.00 0.06 0.06 40 1003.2
20260510004605 67 268 1.0 3.0 0.00 0.06 0.06 39 1003.2
20260510004105 68 265 2.0 3.0 0.00 0.06 0.06 39 1003.2
20260510003105 68 282 2.0 5.0 0.00 0.06 0.06 38 1003.1
20260510002605 68 261 1.0 3.0 0.00 0.06 0.06 37 1003.1
20260510002105 68 262 2.0 5.0 0.00 0.06 0.06 37 1003.1
20260510001605 69 256 3.0 7.0 0.00 0.06 0.06 36 1003.0
20260510001105 69 260 3.0 6.0 0.00 0.06 0.06 36 1002.9
20260510000605 69 275 3.0 5.0 0.00 0.06 0.06 35 1002.8
20260509235605 69 239 2.0 5.0 0.00 0.06 0.06 35 1002.7
20260509235105 69 269 3.0 7.0 0.00 0.06 0.06 34 1002.7
20260509234605 70 268 3.0 10.0 0.00 0.06 0.06 34 1002.7
20260509234105 70 292 3.0 6.0 0.00 0.06 0.06 33 1002.6
20260509233605 70 289 3.0 9.0 0.00 0.06 0.06 33 1002.6
20260509233105 70 280 3.0 7.0 0.00 0.06 0.06 34 1002.6
20260509232605 71 193 2.0 9.0 0.00 0.06 0.06 34 1002.6
20260509232105 71 284 3.0 13.0 0.00 0.06 0.06 33 1002.6
20260509231606 71 276 3.0 9.0 0.00 0.06 0.06 33 1002.6
20260509231106 71 303 5.0 13.0 0.00 0.06 0.06 32 1002.6
20260509230606 71 282 7.0 14.0 0.00 0.06 0.06 32 1002.6
20260509225605 71 325 7.0 17.0 0.00 0.06 0.06 32 1002.4
20260509225105 71 277 5.0 18.0 0.00 0.06 0.06 33 1002.5
20260509224605 71 252 11.0 22.0 0.00 0.06 0.06 32 1002.5
20260509224105 72 271 9.0 20.0 0.00 0.06 0.06 32 1002.1
20260509223605 72 278 9.0 18.0 0.00 0.06 0.06 33 1002.1
20260509223105 72 277 9.0 26.0 0.00 0.06 0.06 32 1002.0
20260509222605 72 290 12.0 20.0 0.00 0.06 0.06 33 1002.0
20260509221605 72 254 9.0 18.0 0.00 0.06 0.06 37 1001.5
20260509221105 72 264 10.0 17.0 0.00 0.06 0.06 40 1001.5
20260509220605 71 247 7.0 16.0 0.00 0.06 0.06 44 1001.4
20260509220105 71 246 6.0 16.0 0.00 0.06 0.06 40 1001.2
20260509215605 72 254 13.0 23.0 0.00 0.06 0.06 41 1001.5
20260509215105 72 267 6.0 12.0 0.00 0.06 0.06 43 1001.1
20260509214605 72 265 6.0 16.0 0.00 0.06 0.06 44 1001.0
20260509213105 72 201 5.0 12.0 0.00 0.06 0.06 46 1001.1
20260509212605 72 258 1.0 6.0 0.00 0.06 0.06 46 1001.0
20260509212105 72 262 0.0 0.0 0.00 0.06 0.06 47 1001.1
20260509211605 71 231 0.0 0.0 0.00 0.06 0.06 49 1001.1
20260509211105 71 272 0.0 0.0 0.00 0.06 0.06 51 1001.1
20260509210105 70 340 0.0 0.0 0.00 0.06 0.06 56 1001.1
20260509205605 70 233 0.0 0.0 0.00 0.06 0.06 58 1001.1
20260509204105 67 271 0.0 0.0 0.00 0.06 0.06 66 1001.4
20260509203605 67 258 0.0 0.0 0.00 0.06 0.06 67 1001.4
20260509203105 66 325 0.0 0.0 0.00 0.06 0.06 66 1001.5
20260509202605 66 298 0.0 0.0 0.00 0.06 0.06 66 1001.5
20260509202105 66 318 0.0 0.0 0.00 0.06 0.06 66 1001.5